This demonstration page uses our WeatherBlox Daily Observations layout. Learn more.

Left ArrowRight Arrow

40.92945, -100.16068

Hourly Observations for May 3, 2015

Temp ( °F °C ) Dew Point ( °F °C ) Humidity (%) Winds ( mph kmh ) Pressure ( in mb ) Visibility ( mi km ) Precip ( " mm )
12:15 am 00:15 Clear 65 18.5 48 9 54 54 N N/A 29.65 1004 10 16.0934 N/A
12:35 am 00:35 Clear 65 18.3 49 9.3 56 56 WSW 8 13 29.65 1004 10 16.0934 N/A
12:55 am 00:55 Clear 66 19.1 48 8.9 52 52 W 12 19 29.65 1004 10 16.0934 N/A
1:15 am 01:15 Clear 62 16.7 48 9 61 61 WNW 8 13 29.68 1005 10 16.0934 N/A
1:35 am 01:35 Clear 60 15.4 48 9 66 66 WNW 7 11 29.68 1005 10 16.0934 N/A
1:55 am 01:55 Clear 58 14.5 48 9 70 70 WNW 7 11 29.68 1005 10 16.0934 N/A
2:15 am 02:15 Clear 56 13.3 47 8.5 73 73 N N/A 29.71 1006 10 16.0934 N/A
2:35 am 02:35 Clear 56 13.5 47 8.6 72 72 N N/A 29.68 1005 10 16.0934 N/A
2:55 am 02:55 Clear 54 12.4 46 7.9 74 74 W 3 6 29.71 1006 10 16.0934 N/A
3:15 am 03:15 Clear 54 12.2 46 8 76 76 N 3 6 29.71 1006 10 16.0934 N/A
3:35 am 03:35 Clear 53 11.5 46 7.7 78 78 N 3 6 29.71 1006 10 16.0934 N/A
3:55 am 03:55 Clear 54 12 46 7.8 76 76 N N/A 29.71 1006 10 16.0934 N/A
4:15 am 04:15 Clear 54 12 46 7.6 75 75 WNW 6 9 29.71 1006 10 16.0934 N/A
4:35 am 04:35 Clear 49 9.6 44 6.8 83 83 NW 3 6 29.74 1007 10 16.0934 N/A
4:55 am 04:55 Clear 50 10.1 45 7 81 81 WNW 5 7 29.74 1007 10 16.0934 N/A
5:15 am 05:15 Clear 50 10 45 7 82 82 SSW 6 9 29.77 1008 10 16.0934 N/A
5:35 am 05:35 Clear 50 10 44 6.8 81 81 N N/A 29.77 1008 10 16.0934 N/A
5:55 am 05:55 Clear 49 9.3 44 6.5 83 83 N N/A 29.74 1007 10 16.0934 N/A
6:15 am 06:15 Clear 48 9 43 6.3 83 83 NW 5 7 29.74 1007 10 16.0934 N/A
6:35 am 06:35 Sunny 48 8.8 44 6.4 85 85 WNW 6 9 29.74 1007 10 16.0934 N/A
6:55 am 06:55 Sunny 48 9.1 44 6.5 84 84 NW 3 6 29.74 1007 10 16.0934 N/A
7:15 am 07:15 Sunny 49 9.3 44 6.5 83 83 N N/A 29.74 1007 10 16.0934 N/A
7:35 am 07:35 Sunny 51 10.6 46 7.9 84 84 N N/A 29.74 1007 10 16.0934 N/A
7:55 am 07:55 Sunny 55 12.9 49 9.7 81 81 N N/A 29.74 1007 10 16.0934 N/A
8:15 am 08:15 Sunny 58 14.3 50 10 76 76 NW 3 6 29.74 1007 10 16.0934 N/A
8:35 am 08:35 Sunny 61 16.2 50 10.2 68 68 W 6 9 29.71 1006 10 16.0934 N/A
8:55 am 08:55 Sunny 63 17.4 50 10 62 62 W 5 7 29.71 1006 10 16.0934 N/A
9:15 am 09:15 Sunny 66 18.9 50 10.1 57 57 W 8 13 29.68 1005 10 16.0934 N/A
9:35 am 09:35 Sunny 69 20.4 48 9.1 48 48 W 8 13 29.68 1005 10 16.0934 N/A
9:55 am 09:55 Sunny 71 21.8 49 9.3 45 45 W 8 13 29.65 1004 10 16.0934 N/A
10:15 am 10:15 Sunny 74 23.2 48 9.1 41 41 W 7 11 29.65 1004 10 16.0934 N/A
10:35 am 10:35 Sunny 76 24.2 49 9.2 39 39 WNW 8 13 29.65 1004 10 16.0934 N/A
10:55 am 10:55 Sunny 78 25.5 45 7.4 32 32 W 7 11 29.62 1003 10 16.0934 N/A
11:15 am 11:15 Sunny 79 26.1 47 8.3 32 32 W 7 11 29.62 1003 10 16.0934 N/A
11:35 am 11:35 Sunny 80 26.4 49 9.4 34 34 SSW 6 9 29.62 1003 10 16.0934 N/A
11:55 am 11:55 Sunny 80 26.7 48 8.8 32 32 W 3 6 29.62 1003 10 16.0934 N/A
12:15 pm 12:15 Sunny 81 27.2 49 9.3 32 32 WSW 6 9 29.62 1003 10 16.0934 N/A
12:35 pm 12:35 Sunny 82 28 47 8.2 29 29 W 10 17 29.65 1004 10 16.0934 N/A
12:55 pm 12:55 Sunny 82 28 47 8.2 29 29 WSW 6 9 29.62 1003 10 16.0934 N/A
1:15 pm 13:15 Sunny 84 28.7 47 8.4 28 28 W 8 13 29.59 1002 10 16.0934 N/A
1:35 pm 13:35 Sunny 85 29.2 43 5.9 23 23 SW 9 15 29.59 1002 10 16.0934 N/A
1:55 pm 13:55 Sunny 85 29.6 45 7.1 24 24 W 6 9 29.59 1002 10 16.0934 N/A
2:15 pm 14:15 Sunny 86 29.8 45 7.3 24 24 NNW 13 20 29.59 1002 10 16.0934 N/A
2:35 pm 14:35 Sunny 85 29.6 45 7.2 24 24 WNW 10 17 29.59 1002 10 16.0934 N/A
2:55 pm 14:55 Sunny 86 29.9 45 7.2 24 24 WNW 13 20 29.59 1002 10 16.0934 N/A
3:15 pm 15:15 Sunny 86 29.9 44 6.6 23 23 NW 14 22 29.59 1002 10 16.0934 N/A
3:35 pm 15:35 Sunny 85 29.6 45 7.4 25 25 W 13 20 29.59 1002 10 16.0934 N/A
3:55 pm 15:55 Sunny 87 30.3 46 8 25 25 NNW 15 24 29.59 1002 10 16.0934 N/A
4:15 pm 16:15 Sunny 85 29.5 46 8 26 26 NNW 5 7 29.59 1002 10 16.0934 N/A
4:35 pm 16:35 Sunny 85 29.7 46 7.6 25 25 N 10 17 29.59 1002 10 16.0934 N/A
4:55 pm 16:55 Sunny 85 29.4 50 9.9 30 30 N 17 28 29.59 1002 10 16.0934 N/A
5:15 pm 17:15 Sunny 83 28.5 50 9.8 31 31 N 15 24 29.59 1002 10 16.0934 N/A
5:35 pm 17:35 Sunny 82 28 50 10.1 33 33 N 16 26 29.65 1004 10 16.0934 N/A
5:55 pm 17:55 Sunny 82 27.8 50 9.8 32 32 N 17 28 29.65 1004 10 16.0934 N/A
6:15 pm 18:15 Sunny 81 27.3 49 9.4 33 33 N 13 20 29.65 1004 10 16.0934 N/A
6:35 pm 18:35 Sunny 81 27 49 9.4 33 33 N 17 28 29.65 1004 10 16.0934 N/A
6:55 pm 18:55 Sunny 79 26.2 49 9.2 34 34 NNE 17 28 29.65 1004 10 16.0934 N/A
7:15 pm 19:15 Sunny 79 25.9 48 8.8 34 34 N 16 26 29.68 1005 10 16.0934 N/A
7:35 pm 19:35 Sunny 76 24.5 49 9.2 38 38 NNE 14 22 29.71 1006 10 16.0934 N/A
7:55 pm 19:55 Sunny 75 23.9 49 9.4 40 40 N 12 19 29.71 1006 10 16.0934 N/A
8:15 pm 20:15 Sunny 73 22.9 49 9.5 43 43 N 14 22 29.71 1006 10 16.0934 N/A
8:35 pm 20:35 Sunny 72 22.2 49 9.4 44 44 N 16 26 29.74 1007 10 16.0934 N/A
8:55 pm 20:55 Clear 71 21.5 48 9.1 45 45 NNE 21 33 29.74 1007 10 16.0934 N/A
9:15 pm 21:15 Clear 69 20.7 48 9 47 47 N 17 28 29.8 1009 10 16.0934 N/A
9:35 pm 21:35 Clear 67 19.6 46 7.9 47 47 NNE 16 26 29.8 1009 10 16.0934 N/A
9:55 pm 21:55 Clear 67 19.2 46 7.5 47 47 NNE 18 30 29.83 1010 10 16.0934 N/A
10:15 pm 22:15 Clear 66 18.7 45 7.2 47 47 NNE 18 30 29.83 1010 10 16.0934 N/A
10:35 pm 22:35 Clear 65 18.1 44 6.6 47 47 NNE 15 24 29.85 1011 10 16.0934 N/A
10:55 pm 22:55 Clear 64 17.6 42 5.4 45 45 NNE 21 33 29.88 1012 10 16.0934 N/A
11:15 pm 23:15 Clear 63 17.2 41 5 45 45 NNE 18 30 29.85 1011 10 16.0934 N/A
11:35 pm 23:35 Clear 62 16.8 40 4.6 45 45 NNE 17 28 29.88 1012 10 16.0934 N/A
11:55 pm 23:55 Clear 62 16.5 40 4.3 45 45 NNE 16 26 29.88 1012 10 16.0934 N/A

Powered by AerisWeather